Date,TemperatureHighF,TemperatureAvgF,TemperatureLowF,DewpointHighF,DewpointAvgF,DewpointLowF,HumidityHigh,HumidityAvg,HumidityLow,PressureMaxIn,PressureMinIn,WindSpeedMaxMPH,WindSpeedAvgMPH,GustSpeedMaxMPH,PrecipitationSumIn
2013-1-1,68,55,46,65,51,41,92,88,82,30.19,29.89,19,7,21,0.00
2013-1-2,46,43,42,41,38,35,85,81,74,30.31,30.17,17,7,19,0.00
2013-1-3,52,46,39,37,34,31,78,64,45,30.40,30.28,16,8,18,0.00
2013-1-4,49,47,46,38,36,33,69,65,56,30.49,30.35,15,6,17,0.00
2013-1-5,47,45,43,45,42,37,92,88,68,30.38,30.24,11,4,13,0.00
2013-1-6,58,49,42,45,42,40,93,79,54,30.36,30.24,15,5,16,0.00
2013-1-7,59,50,40,47,43,37,88,77,62,30.31,30.08,12,2,12,0.00
2013-1-8,63,58,51,60,55,46,92,90,77,30.09,29.87,19,5,24,0.00
2013-1-9,67,64,61,64,61,58,93,92,89,30.07,29.83,18,7,26,0.00
2013-1-10,68,61,53,60,53,47,93,77,48,30.10,29.97,13,3,13,0.00
2013-1-11,71,60,49,63,55,46,92,84,61,30.06,29.87,21,4,24,0.00
2013-1-12,75,72,64,70,69,62,93,89,85,29.88,29.70,25,10,29,0.00
2013-1-13,72,48,42,69,43,38,93,82,70,30.13,29.76,23,9,23,0.00
2013-1-14,46,43,39,40,38,37,92,84,73,30.23,30.07,19,8,23,0.00
2013-1-15,43,39,37,39,36,34,93,89,84,30.16,30.03,20,6,24,0.00
2013-1-16,49,42,37,34,28,20,88,61,32,30.30,30.14,17,6,19,0.00
2013-1-17,62,48,34,38,32,25,81,57,31,30.46,30.27,13,2,14,0.00
2013-1-18,64,51,42,43,38,36,81,64,39,30.52,30.36,14,3,14,0.00
2013-1-19,69,54,40,53,45,36,92,75,41,30.37,30.18,15,3,18,0.00
2013-1-20,72,56,45,58,49,43,93,80,45,30.27,30.11,17,1,17,0.00
2013-1-21,72,58,47,56,50,44,93,77,51,30.24,30.14,12,1,12,0.00
2013-1-22,73,59,50,54,50,46,91,73,48,30.32,30.20,15,3,15,0.00
2013-1-23,75,61,49,60,55,46,92,81,53,30.35,30.22,13,3,15,0.00
2013-1-24,79,67,60,65,61,57,92,82,54,30.29,30.14,16,4,19,0.00
2013-1-25,79,68,61,64,61,58,92,81,55,30.18,30.06,21,5,21,0.00
2013-1-26,79,68,61,65,61,58,92,80,51,30.19,30.08,15,4,17,0.00
2013-1-27,78,68,60,68,63,57,92,86,67,30.14,30.03,25,9,29,0.00
2013-1-28,80,72,68,68,66,61,91,81,54,30.10,29.95,26,12,26,0.00
2013-1-29,76,72,60,70,67,55,90,85,75,29.95,29.60,28,12,32,0.00
2013-1-30,61,56,45,54,32,24,79,42,29,30.24,29.76,32,10,36,0.00
2013-1-31,67,53,40,38,32,24,79,49,20,30.32,30.21,12,3,16,0.00
2013-2-1,74,58,48,48,42,35,80,57,25,30.36,30.24,19,3,23,0.00
2013-2-2,76,62,51,57,52,47,91,72,39,30.26,30.16,10,2,12,0.00
2013-2-3,74,62,54,54,43,31,89,55,22,30.32,30.06,13,4,14,0.00
2013-2-4,73,63,56,65,58,49,92,84,71,30.05,29.82,12,2,14,0.00
2013-2-5,81,69,62,67,64,60,92,85,58,29.99,29.86,17,3,19,0.01
2013-2-6,67,64,61,63,61,58,92,91,87,30.03,29.85,25,4,25,0.01
2013-2-7,73,64,57,64,60,55,92,87,71,29.99,29.89,8,1,9,0.01
2013-2-8,71,62,54,61,52,50,91,72,48,30.17,29.99,16,4,17,0.12
2013-2-9,72,63,54,66,58,51,90,84,67,30.12,29.85,26,10,26,0.12
2013-2-10,75,67,59,70,59,50,90,77,59,29.96,29.75,27,7,31,0.01
2013-2-11,64,57,53,53,50,44,92,80,50,30.05,29.95,18,8,21,0.15
2013-2-12,63,58,54,60,54,50,92,88,77,29.99,29.81,21,4,21,0.01
2013-2-13,60,53,46,50,41,38,78,64,45,30.12,29.99,16,6,20,0.00
2013-2-14,69,54,40,45,39,32,92,61,27,30.16,30.04,11,2,13,0.00
2013-2-15,68,55,46,47,42,33,86,63,33,30.33,30.09,22,5,22,0.00
2013-2-16,60,50,39,34,29,22,70,45,28,30.44,30.25,14,4,16,0.00
2013-2-17,71,58,44,52,44,35,85,63,33,30.26,30.05,21,6,23,0.00
2013-2-18,73,67,57,66,60,52,90,79,70,30.07,29.83,29,10,29,0.41
2013-2-19,70,60,52,53,40,34,80,50,27,30.24,30.07,15,5,16,0.44
2013-2-20,63,57,54,61,49,33,92,75,42,30.11,29.77,21,9,26,0.01
2013-2-21,77,69,62,71,60,46,92,75,42,29.85,29.66,29,10,31,0.02
2013-2-22,66,61,55,51,47,38,74,60,43,29.98,29.83,22,6,22,0.01
2013-2-23,69,58,50,50,46,43,80,65,48,30.00,29.88,15,4,21,0.01
2013-2-24,71,60,49,59,51,43,90,74,57,29.94,29.66,17,6,19,0.00
2013-2-25,74,62,49,65,44,15,92,59,11,29.79,29.52,31,10,36,0.02
2013-2-26,63,54,44,38,34,32,64,49,32,29.93,29.79,24,8,24,0.00
2013-2-27,69,57,49,52,39,29,83,53,32,30.17,29.90,26,5,26,0.00
2013-2-28,58,50,44,33,29,26,56,46,35,30.28,30.15,14,4,19,0.00
2013-3-1,64,53,41,33,30,24,70,44,23,30.30,30.14,13,3,18,0.00
2013-3-2,56,49,42,34,27,21,68,45,27,30.37,30.24,24,6,29,0.00
2013-3-3,69,54,38,50,35,24,81,52,27,30.29,30.00,17,4,19,0.00
2013-3-4,77,66,55,62,57,49,87,74,52,30.01,29.78,27,10,32,0.00
2013-3-5,68,62,52,62,40,25,85,49,23,30.30,29.81,26,11,27,0.00
2013-3-6,70,55,44,42,26,18,67,36,16,30.42,30.22,17,4,21,0.00
2013-3-7,72,58,45,51,45,40,84,64,35,30.27,30.16,23,6,25,0.00
2013-3-8,73,62,55,61,56,50,91,82,63,30.20,30.06,23,7,23,0.00
2013-3-9,76,68,62,65,62,58,91,82,67,30.07,29.76,28,13,34,0.00
2013-3-10,68,63,54,64,53,37,91,72,44,30.06,29.72,22,10,24,0.02
2013-3-11,60,53,48,38,29,19,63,41,20,30.13,29.99,20,7,24,0.02
2013-3-12,77,58,43,44,34,27,70,46,18,30.24,30.07,14,2,20,0.01
2013-3-13,76,61,49,47,42,34,80,54,26,30.44,30.24,13,3,15,0.01
2013-3-14,78,62,49,53,47,42,90,63,30,30.41,30.27,23,6,23,0.00
2013-3-15,78,64,51,60,53,48,91,69,40,30.28,30.06,18,6,22,0.00
2013-3-16,79,67,56,62,58,53,91,75,48,30.06,29.84,26,8,26,0.00
2013-3-17,82,70,60,66,63,58,92,79,56,29.87,29.69,23,7,27,0.00
2013-3-18,91,77,66,68,64,59,91,69,38,29.88,29.70,16,4,17,0.00
2013-3-19,82,71,64,65,60,51,87,69,50,29.98,29.88,20,8,21,0.00
2013-3-20,76,65,56,63,50,35,89,62,25,30.17,29.93,21,6,23,0.01
2013-3-21,73,64,56,62,55,48,89,75,44,30.05,29.71,24,9,27,0.01
2013-3-22,82,73,66,70,67,62,91,81,63,29.74,29.65,18,4,19,0.01
2013-3-23,74,70,65,69,66,61,91,88,81,29.74,29.58,11,2,15,0.01
2013-3-24,68,57,49,65,41,29,90,58,33,30.14,29.63,32,10,32,0.01
2013-3-25,60,52,43,32,25,17,61,37,20,30.37,30.14,18,6,22,0.00
2013-3-26,63,53,43,26,23,20,45,31,19,30.48,30.30,15,4,16,0.00
2013-3-27,72,58,43,50,40,26,73,54,31,30.36,30.21,21,6,22,0.00
2013-3-28,73,64,56,59,56,49,88,74,59,30.25,30.17,23,6,23,0.00
2013-3-29,80,67,58,63,60,55,92,78,50,30.21,30.10,23,8,27,0.00
2013-3-30,81,70,64,65,62,60,91,77,51,30.14,29.95,17,6,21,0.00
2013-3-31,85,70,64,67,64,60,91,82,51,29.97,29.84,22,6,25,0.02
2013-4-1,3277,26,62,100,84,60,92,38,90,30.06,0.00,255,0,255,0.03
2013-4-2,3277,0,200,100,100,100,0,0,100,0.00,0.00,255,0,255,0.00
2013-4-3,3277,0,200,100,100,100,0,0,100,0.00,0.00,255,0,255,0.00
2013-4-6,74,0,200,-100,-100,-100,0,0,100,30.00,30.00,9,-999,14,0.00
2013-4-8,83,77,68,67,66,64,92,69,59,29.86,29.76,34,18,34,0.00
2013-4-9,84,79,70,72,70,66,87,74,66,29.79,29.68,37,19,37,0.00
2013-4-10,80,67,51,72,62,49,92,85,69,29.78,29.71,35,12,35,0.00
2013-4-13,81,76,69,58,55,51,68,48,38,29.91,29.81,22,10,26,0.00
2013-4-19,66,58,50,35,32,29,53,38,26,30.24,30.13,28,10,28,0.00
2013-4-20,73,70,65,48,44,38,52,39,32,30.22,30.08,22,8,22,0.00
2013-4-21,76,73,70,56,56,54,58,54,50,30.06,30.04,15,-23,16,0.00
2013-5-3,67,60,49,39,34,28,67,40,24,30.20,30.05,34,3,34,0.00
2013-5-11,85,84,83,66,65,64,56,53,52,30.01,29.98,17,6,18,0.00
2013-5-15,82,75,70,71,69,67,91,81,68,30.11,29.94,25,12,27,0.00
2013-5-16,84,80,74,72,71,69,84,74,65,29.90,29.80,25,12,27,0.00
2013-5-18,91,89,85,72,70,68,63,54,49,29.90,29.88,25,12,25,0.00
2013-5-20,91,85,78,75,73,72,84,68,58,29.89,29.80,29,14,30,0.00
2013-5-21,90,85,77,74,73,71,86,68,59,29.85,29.71,27,12,27,0.00
2013-5-22,94,84,77,76,74,71,86,73,56,29.90,29.80,12,2,14,0.00
2013-5-23,94,87,79,76,74,72,87,68,52,30.00,29.93,21,9,21,0.01
2013-5-25,87,85,82,73,72,71,71,66,61,30.13,30.06,22,10,22,0.00
2013-5-31,92,88,79,76,75,73,89,67,57,29.90,29.81,23,10,25,0.01
2013-6-1,96,92,89,76,75,74,65,59,52,29.87,29.83,20,7,22,0.00
2013-6-10,98,90,84,77,74,71,77,61,44,29.98,29.92,27,5,30,0.06
2013-6-12,96,89,81,78,76,73,84,67,52,30.06,29.97,19,4,19,0.00
2013-6-13,101,92,83,78,75,71,82,61,39,30.06,29.91,18,1,18,0.00
2013-6-14,101,92,82,78,73,68,87,56,36,29.97,29.87,18,1,18,0.00
2013-6-16,96,94,93,73,72,70,51,48,46,29.96,29.94,14,3,15,0.00
2013-6-17,98,90,81,77,74,71,84,61,45,30.00,29.87,19,4,20,0.00
2013-6-18,94,88,81,76,74,70,84,62,49,29.98,29.86,19,4,19,0.00
2013-6-19,98,91,81,77,72,68,84,57,38,29.97,29.89,19,4,21,0.00
2013-6-20,97,92,83,77,73,69,82,56,43,30.06,29.99,21,7,23,0.00
2013-6-21,98,92,82,77,73,69,83,55,43,30.09,30.00,21,6,21,0.00
2013-6-24,98,92,84,76,72,68,76,55,41,30.05,29.96,23,9,24,0.00
2013-6-25,96,91,83,77,74,71,81,59,47,30.03,29.94,25,8,26,0.00
2013-6-26,101,92,80,76,74,71,84,58,40,29.99,29.91,29,5,29,0.00
2013-6-27,103,92,82,76,72,67,81,53,34,30.03,29.91,13,3,14,0.00
2013-6-28,101,92,80,76,70,64,87,52,32,29.98,29.79,20,4,20,0.00
2013-7-1,91,87,80,62,60,57,52,40,33,29.92,29.88,19,6,19,0.00
2013-7-2,96,90,83,64,59,54,52,36,26,30.00,29.90,16,2,16,0.00
2013-7-3,96,88,80,69,66,59,68,49,31,30.01,29.95,13,0,13,0.02
2013-7-8,93,82,74,76,74,70,90,77,58,30.15,30.04,18,2,18,0.00
2013-7-9,100,93,84,78,75,71,83,57,42,30.14,30.04,22,5,22,0.00
2013-7-10,98,92,83,77,74,71,81,57,44,30.09,29.93,21,4,24,0.00
2013-7-11,99,91,81,76,72,66,83,56,37,29.99,29.89,14,3,14,0.00
2013-7-15,89,82,74,75,73,70,90,74,57,29.99,29.94,36,3,36,0.00
2013-7-16,93,86,79,76,74,70,83,69,53,30.09,30.02,20,6,20,0.00
2013-7-17,84,77,73,76,73,70,91,87,75,30.17,30.10,15,3,17,0.00
2013-7-18,99,92,82,76,71,63,82,52,35,30.13,30.00,21,6,22,0.00
2013-7-19,97,88,81,76,73,67,83,62,41,30.05,29.97,20,2,22,0.00
2013-7-22,95,90,81,78,76,74,88,65,50,30.01,29.94,22,7,24,0.00
2013-7-23,95,91,81,77,74,70,87,59,46,30.02,29.93,20,6,21,0.00
2013-7-24,96,90,80,77,74,72,85,61,47,30.00,29.86,17,4,17,0.00
2013-7-25,103,91,79,76,72,65,85,56,32,30.02,29.96,12,2,13,0.00
2013-7-26,97,89,81,77,74,68,87,64,43,30.03,29.95,21,5,21,0.00
2013-7-27,96,94,93,76,75,72,58,54,47,29.87,29.83,16,6,16,0.00
2013-7-29,98,91,81,77,72,63,86,55,34,30.04,30.00,24,7,24,0.00
2013-7-30,99,91,79,76,73,63,86,58,33,30.11,30.01,21,5,22,0.00
2013-7-31,103,91,80,76,73,68,85,59,36,30.09,29.94,13,2,15,0.00
2013-8-1,103,92,80,77,73,69,86,57,36,30.03,29.90,13,3,16,0.00
2013-8-2,97,88,81,77,74,69,85,64,41,29.98,29.93,12,2,13,0.00
2013-8-5,99,93,81,77,74,69,85,56,40,30.04,29.91,21,5,21,0.00
2013-8-7,100,92,82,77,73,66,84,55,35,29.95,29.83,22,6,22,0.00
2013-8-11,94,92,91,76,73,71,60,54,51,30.00,29.98,18,8,19,0.00
2013-8-12,100,90,82,76,75,73,83,63,45,30.06,29.96,19,3,21,0.00
2013-8-14,101,91,81,77,73,67,86,57,33,29.98,29.84,16,5,17,0.00
2013-8-15,92,82,76,74,71,67,85,71,48,30.01,29.92,11,1,12,0.01
2013-8-20,89,84,78,75,73,70,83,69,58,30.03,29.96,23,2,25,0.01
2013-8-23,97,90,83,76,74,71,79,62,45,30.00,29.94,13,2,14,0.00
2013-8-27,96,89,77,77,75,73,87,64,49,30.11,30.01,18,5,19,0.02
2013-8-28,97,92,81,75,72,67,82,54,40,30.09,29.98,16,2,17,0.00
2013-8-29,100,90,79,76,73,67,84,59,35,30.06,29.92,13,3,13,0.00
2013-9-3,102,93,82,76,72,66,82,52,37,29.98,29.84,19,3,21,0.00
2013-9-6,95,89,82,77,74,72,79,62,51,30.07,29.94,20,5,22,0.00
2013-9-8,95,90,84,74,73,72,73,59,50,29.94,29.88,18,6,18,0.01
2013-9-9,94,88,80,76,74,70,82,64,47,29.98,29.93,25,8,25,0.00
2013-9-11,96,89,79,76,73,70,83,60,46,30.07,29.98,21,7,21,0.00
2013-9-12,97,91,80,75,71,65,81,54,37,30.02,29.89,20,6,21,0.00
2013-9-13,99,92,79,74,68,63,78,48,35,29.93,29.79,17,4,18,0.00
2013-9-14,96,90,85,76,74,69,70,59,48,29.91,29.83,23,5,23,0.00
2013-9-16,91,85,81,77,76,75,82,76,61,30.02,29.99,13,2,14,0.01
2013-9-21,80,76,73,69,68,68,84,78,69,29.83,29.74,22,11,23,0.01
2013-9-22,85,84,81,64,60,57,56,46,39,29.80,29.72,20,8,20,0.01
2013-9-25,98,89,77,73,65,51,73,48,27,29.87,29.76,12,2,12,0.01
2013-9-26,97,89,77,73,65,56,81,49,29,29.90,29.83,22,5,22,0.00
2013-9-27,93,88,80,78,76,73,81,69,61,29.93,29.86,24,8,24,0.00
2013-9-28,86,84,83,78,77,76,81,79,77,29.92,29.88,22,9,22,0.00
2013-9-30,88,83,75,76,74,70,85,75,64,29.88,29.80,19,2,19,0.00
2013-10-3,92,86,78,76,74,71,85,68,55,29.94,29.85,17,4,18,0.01
2013-10-5,92,90,89,71,69,67,53,49,47,29.87,29.82,11,3,12,0.00
2013-10-8,87,78,62,54,50,46,72,40,27,30.09,29.98,11,0,11,0.00
2013-10-9,87,82,71,64,62,60,73,52,42,30.07,29.97,14,2,14,0.00
2013-10-10,91,83,70,68,65,62,81,54,40,30.05,29.92,18,3,20,0.00
2013-10-12,90,79,72,78,72,67,84,80,65,29.97,29.91,27,3,27,0.00
2013-10-13,75,74,74,70,69,68,84,83,83,30.12,30.04,14,3,14,0.00
2013-10-16,73,68,65,66,63,60,85,83,79,29.98,29.92,15,5,16,0.00
2013-10-25,80,74,65,59,58,56,76,58,48,30.34,30.23,15,5,16,0.00
2013-10-27,65,63,62,59,58,56,83,82,82,30.10,30.08,11,0,12,0.00
2013-10-28,87,80,68,73,70,63,85,73,62,30.10,30.01,23,6,23,0.00
2013-10-30,82,80,74,76,74,70,85,83,81,30.01,29.85,26,10,26,0.00
2013-10-31,77,69,67,70,63,61,85,83,79,29.88,29.77,17,2,17,0.00
2013-11-1,81,75,59,60,57,51,85,56,37,29.93,29.82,18,4,20,0.00
2013-11-4,70,67,62,65,62,57,85,84,82,30.08,29.98,22,3,22,0.02
2013-11-5,82,78,71,70,68,66,84,74,65,30.03,29.95,26,10,29,0.03
2013-11-9,71,71,71,56,56,56,58,58,58,30.15,30.14,7,6,9,0.04
2013-11-12,71,64,58,57,54,51,80,69,56,30.43,30.33,30,12,30,0.05
2013-11-14,57,50,44,44,39,35,70,66,61,30.32,30.27,9,1,11,0.00
2013-11-18,79,75,71,70,63,48,84,67,44,30.05,29.99,18,4,18,0.06
2013-11-22,53,50,47,49,46,43,87,85,82,30.23,30.17,20,8,21,0.00
2013-11-23,49,49,48,45,45,44,90,86,85,30.31,30.28,22,11,23,0.00
2013-11-24,49,48,48,33,32,31,55,54,53,30.37,30.33,13,7,14,0.00
2013-11-25,43,41,39,39,38,35,87,86,85,30.20,30.01,17,7,17,0.00
2013-11-26,41,40,39,39,37,35,91,87,85,30.14,30.10,25,11,27,0.00
2013-11-27,46,42,38,31,29,28,68,61,52,30.44,30.35,16,7,19,0.00
2013-12-2,76,70,63,65,62,57,85,76,67,29.87,29.70,16,4,17,0.00
2013-12-7,36,36,36,33,33,32,88,88,88,30.28,30.28,11,4,11,0.00
2013-12-9,47,47,46,44,43,43,87,87,86,30.14,30.06,17,7,17,0.00
2013-12-10,48,43,34,31,29,28,83,60,47,30.45,30.33,17,8,17,0.00
2013-12-11,52,49,44,41,39,37,76,68,61,30.42,30.34,10,2,10,0.00
2013-12-12,54,54,53,35,34,32,49,47,46,30.44,30.39,7,0,7,0.00
2013-12-13,53,50,48,47,44,41,80,78,76,30.16,30.11,15,2,15,0.00
2013-12-16,60,52,40,39,37,35,83,59,41,30.35,30.27,7,0,8,0.00